Regional Weather Roundup
Issued by NWS Newport/Morehead, NC

Current Version | Previous Version | Text Only | Print | Product List | Glossary On
Versions: 1 2 3 4 5 6 7 8 9 10 11 12 13 14 15 16 17 18 19 20 21 22 23 24 25 26 27 28 29 30 31 32 33 34 35 36 37 38 39 40 41 42 43 44 45 46 47 48 49 50
000 ASUS42 KMHX 201610 RWRMHX WEATHER ROUNDUP FOR EASTERN NORTH CAROLINA NATIONAL WEATHER SERVICE NEWPORT/MOREHEAD CITY NC 1100 AM EST SAT DEC 20 2014 NOTE: "FAIR" INDICATES FEW OR NO CLOUDS BELOW 12,000 FEET WITH NO SIGNIFICANT WEATHER AND/OR OBSTRUCTIONS TO VISIBILITY NCZ015>017-031-032-045>047-102-103-201700- NORTH COAST CITY SKY/WX TMP DP RH WIND PRES REMARKS EDENTON N/A 39 32 77 N6 30.30F ELIZABETH CITY CLOUDY 43 30 60 N7 30.31F KITTY HAWK CLOUDY 42 35 75 N3 30.28F MANTEO CLOUDY 42 34 72 N7 30.29F $$ NCZ045>047-081-094-103-104-201700- CENTRAL COAST CITY SKY/WX TMP DP RH WIND PRES REMARKS FRISCO LGT RAIN 44 38 79 N8 30.27F SWANQUARTER N/A 41 N/A N/A NE6G12 30.24S $$ NCZ095-097-098-100-101-201700- SOUTHERN COAST CITY SKY/WX TMP DP RH WIND PRES REMARKS BEAUFORT CLOUDY 44 38 79 NE8 30.27S CEDAR ISLAND N/A 43 N/A N/A N8G17 30.30F JACKSONVILLE LGT RAIN 42 39 89 NE8 30.27S PINEY ISLAND CLOUDY 46 32 58 NE10 30.27F WILMINGTON LGT RAIN 44 41 89 NE7 30.27R $$ NCZ011>013-027>030-043-044-078>080-089-090>093-098-201700- COASTAL PLAIN CITY SKY/WX TMP DP RH WIND PRES REMARKS AHOSKIE CLOUDY 36 28 74 N5 30.32F CLINTON LGT RAIN 39 38 97 NE5 30.29S ELIZABETHTOWN DRIZZLE 41 40 93 E5 30.27S GOLDSBORO MIX PCPN 38 37 97 NE2 30.28F GREENVILLE DRIZZLE 37 32 81 N5 30.30F HAVELOCK LGT RAIN 43 38 82 NE7 30.28S KENANSVILLE LGT RAIN 39 37 93 CALM 30.29F KINSTON LGT RAIN 39 34 81 NE5 30.30S NEW BERN CLOUDY 43 36 76 NE5 30.29S RICHLANDS CLOUDY 41 36 81 N8 30.28S ROCKY MOUNT LGT RAIN 37 29 72 N6 30.31F WASHINGTON CLOUDY 38 32 77 NE6 30.30S WHITEVILLE LGT RAIN 43 39 85 NE6 30.26S $$ AMZ130-135-150-152-154-156-158-170-250-252-270-ANZ085-086-088-633-658-670-201700- MARINE OBSERVATIONS STATION/POSITION TIME TEMP WIND PRES WAVE SWELL AIR SEA DIR/SP/G HT/PER HT/PER (UTC) (F) (DEG/KT/KT) (MB) (FT/S) (FT/S) CHESAPEAKE LIGHT 1500 38 360/ 8/ 8 1027.1 64 E VA BEACH 1600 43 54 350/ 8/ 14 1025.4 2/ 5 2/ 5 DUCK 1600 41 46 10/ 8/ 9 1025.1 2 E DUCK 1600 46 N/A 2/ 5 10 NE DUCK 1600 52 N/A 3/ 5 OREGON INLET 1600 43 49 330/ 8/ 12 1025.6 13E OREGON INLT 1600 52 N/A 3/ 5 HATTERAS CG 1600 44 52 10/ 14/ 16 1025.3 DIAMOND BUOY 1600 49 1024.7 3/ 7 17 S OCRACOKE NOT AVBL CAPE LOOKOUT 1500 46 30/ 12/ 14 1024.5 BEAUFORT LAB 1600 44 53 40/ 6/ 12 1023.9 30 SE NEW RIVER 1600 52 61 60/ 16/ 19 1024.2 3/ 4 2/10 5 SE WRIGHTSVLE NOT AVBL 225 S CAPE HAT 1453 66 72 90/ 10/ 14 1022.5 2/10 2/10 41 SE CHARLESTON 1600 62 68 40/ 12/ 16 1021.5 4/ 6 3/11 $$

USA.gov is the U.S. government's official web portal to all federal, state and local government web resources and services.